Location: Starlight Observatory
(38.4029°N, 85.8936°W)
Time: 23:37:44
(UTC-04:00)

Amateur Radio Satellites - All Passes

Search period start: 28 June 2016 23:07
Search period end: 29 June 2016 23:07
Location: Starlight Observatory, 38.4029°N, 85.8936°W

Satellite Date Start Highest point End Downlink Frequencies (MHz)
Time Altitude Azimuth
ANTELSAT 28 Jun 23:20:00 23:23:54 26° 95° (E) 23:27:49 437.575/2403.000
YUBILEINY 28 Jun 23:23:26 23:29:08 18° 64° (ENE) 23:34:49 435.215
PRISM 28 Jun 23:24:51 23:27:34 17° 293° (WNW) 23:30:15 437.425
50 SAT 28 Jun 23:26:12 23:26:58 11° 65° (ENE) 23:27:44 437.505
ESTCUBE 1 28 Jun 23:45:19 23:49:23 33° 70° (ENE) 23:53:28 437.505/2401.250
AISAT 28 Jun 23:49:10 23:52:40 24° 68° (ENE) 23:56:11 437.250
UKube-1 28 Jun 23:49:25 23:51:41 14° 65° (ENE) 23:53:57 .
HUMSAT D 28 Jun 23:51:17 23:55:03 33° 263° (W) 23:58:54 437.325/437.525
DX 1 29 Jun 00:08:07 00:11:49 28° 69° (ENE) 00:15:33 434.975-435.025
TIGRISAT 29 Jun 00:10:57 00:15:38 88° 103° (ESE) 00:20:20 435.000
UNISAT 6 29 Jun 00:16:11 00:20:52 77° 284° (WNW) 00:25:33 437.425
Cosmos 2504 29 Jun 00:24:03 00:27:58 13° 59° (ENE) 00:31:48 435.465 / 435.565
NANOSAT C BR1 29 Jun 00:26:39 00:29:47 20° 94° (E) 00:32:54 145.865
SO-50 29 Jun 00:28:13 00:31:04 16° 43° (NE) 00:33:51 436.795
QB50P1 29 Jun 00:29:36 00:32:58 22° 95° (E) 00:36:20 145.935-145.965
Cosmos 2491 29 Jun 00:31:35 00:38:23 26° 82° (E) 00:45:08 435.465 / 435.565
POPSAT HIP 1 29 Jun 00:32:45 00:36:14 24° 96° (E) 00:39:43 437.405
CUBEBUG 1 29 Jun 00:34:50 00:39:11 79° 77° (ENE) 00:43:33 437.445
VELOX 1 29 Jun 00:43:33 00:47:58 89° 255° (WSW) 00:52:24 145.980
QB50P2 29 Jun 00:44:47 00:48:44 35° 98° (E) 00:52:39 145.880/145.840
DUCHIFAT 1 29 Jun 00:46:34 00:50:22 31° 97° (E) 00:54:07 145.980
POLYITAN 1 29 Jun 00:47:23 00:51:21 36° 98° (E) 00:55:19 437.675
ANTELSAT 29 Jun 00:56:31 01:00:32 30° 290° (WNW) 01:04:36 437.575/2403.000
50 SAT 29 Jun 00:56:35 01:00:11 49° 260° (W) 01:03:49 437.505
TISAT 1 29 Jun 01:09:10 01:11:57 18° 67° (ENE) 01:14:44 437.305
RS-15 29 Jun 01:16:01 01:18:58 11° 267° (W) 01:21:57 29.354- 29.394
YUBILEINY 29 Jun 01:18:15 01:27:08 88° 263° (W) 01:35:59 435.215
ESTCUBE 1 29 Jun 01:22:46 01:26:13 21° 266° (W) 01:29:41 437.505/2401.250
UKube-1 29 Jun 01:23:07 01:27:18 49° 260° (W) 01:31:30 .
SPROUT 29 Jun 01:23:58 01:28:12 74° 258° (WSW) 01:32:28 437.525
AISAT 29 Jun 01:25:12 01:29:00 28° 263° (W) 01:32:50 437.250
BUGSAT 1 29 Jun 01:41:01 01:45:04 59° 101° (E) 01:49:10 437.445
DX 1 29 Jun 01:44:30 01:47:58 23° 264° (W) 01:51:27 434.975-435.025
SWISSCUBE 29 Jun 01:46:28 01:47:45 11° 61° (ENE) 01:49:02 437.505
Oscar 19 29 Jun 01:50:13 01:51:34 11° 90° (E) 01:52:55 437.125/150
JAS-2 29 Jun 01:59:43 02:05:00 43° 98° (E) 02:09:57 435.910
NANOSAT C BR1 29 Jun 02:01:46 02:05:32 31° 289° (WNW) 02:09:17 145.865
QB50P1 29 Jun 02:05:04 02:08:42 28° 290° (WNW) 02:12:20 145.935-145.965
SO-50 29 Jun 02:07:26 02:12:03 69° 242° (WSW) 02:16:31 436.795
POPSAT HIP 1 29 Jun 02:08:23 02:11:57 26° 290° (WNW) 02:15:30 437.405
BEESAT 29 Jun 02:09:38 02:12:46 18° 65° (ENE) 02:15:54 436.000
ITUPSAT 1 29 Jun 02:10:52 02:14:02 18° 65° (ENE) 02:17:13 437.325
BEESAT 3 29 Jun 02:13:45 02:14:32 10° 108° (ESE) 02:15:17 437.485
Cosmos 2504 29 Jun 02:14:13 02:23:07 71° 80° (E) 02:31:34 435.465 / 435.565
QB50P2 29 Jun 02:21:19 02:24:15 18° 293° (WNW) 02:27:11 145.880/145.840
DUCHIFAT 1 29 Jun 02:22:42 02:25:50 20° 292° (WNW) 02:28:58 145.980
POLYITAN 1 29 Jun 02:23:58 02:26:53 18° 293° (WNW) 02:29:46 437.675
Cosmos 2491 29 Jun 02:25:49 02:34:29 63° 280° (W) 02:43:09 435.465 / 435.565
O/OREOS (USA 219) 29 Jun 02:28:08 02:29:55 12° 98° (E) 02:31:42 437.305
TISAT 1 29 Jun 02:43:30 02:47:19 35° 262° (W) 02:51:09 437.305
BEESAT 2 29 Jun 02:50:35 02:52:59 16° 110° (ESE) 02:55:24 435.950
PCSat 29 Jun 03:09:57 03:15:22 88° 118° (ESE) 03:20:50 145.827
YUBILEINY 29 Jun 03:17:47 03:22:34 16° 283° (WNW) 03:27:22 435.215
BUGSAT 1 29 Jun 03:18:54 03:19:57 11° 296° (WNW) 03:20:59 437.445
SWISSCUBE 29 Jun 03:20:03 03:24:50 80° 257° (WSW) 03:29:40 437.505
Oscar 19 29 Jun 03:26:17 03:31:25 77° 285° (WNW) 03:36:31 437.125/150
BEESAT 29 Jun 03:45:33 03:50:09 48° 260° (W) 03:54:48 436.000
JAS-2 29 Jun 03:45:36 03:49:44 22° 297° (WNW) 03:53:41 435.910
Gurwin Techsat 1B 29 Jun 03:46:20 03:51:39 71° 102° (ESE) 03:56:57 435.225
ITUPSAT 1 29 Jun 03:46:51 03:51:28 47° 260° (W) 03:56:07 437.325
BEESAT 3 29 Jun 03:47:49 03:51:40 57° 303° (WNW) 03:55:34 437.485
ITAMSAT 1 29 Jun 03:50:14 03:54:34 26° 96° (E) 03:58:52 435.822/435.867
O/OREOS (USA 219) 29 Jun 04:04:22 04:08:46 55° 293° (WNW) 04:13:11 437.305
Cosmos 2504 29 Jun 04:09:05 04:15:34 24° 280° (W) 04:21:52 435.465 / 435.565
MOZHAYETS 4 29 Jun 04:20:54 04:25:13 40° 72° (ENE) 04:29:35
BEESAT 2 29 Jun 04:26:45 04:30:29 39° 306° (NW) 04:34:15 435.950
KKS-1 29 Jun 04:27:23 04:31:41 54° 74° (ENE) 04:36:01 437.445
Cosmos 2491 29 Jun 04:31:38 04:33:17 11° 302° (WNW) 04:34:57 435.465 / 435.565
AO-7 29 Jun 04:40:11 04:47:40 35° 98° (E) 04:55:02 29.400- 29.500
PCSat 29 Jun 04:56:26 04:59:31 15° 316° (NW) 05:02:36 145.827
STARS 29 Jun 04:58:17 05:02:33 59° 74° (ENE) 05:06:51 437.465
Cosmos 2499 29 Jun 05:01:46 05:02:29 10° 56° (NE) 05:03:13 435.465 / 435.565
AIST 2 29 Jun 05:12:51 05:16:26 29° 113° (ESE) 05:20:02 435.215
GONETS M04 29 Jun 05:20:28 05:27:13 24° 68° (ENE) 05:33:57
AIST 1 29 Jun 05:21:05 05:25:22 89° 101° (E) 05:29:37
Gurwin Techsat 1B 29 Jun 05:28:08 05:30:58 15° 298° (WNW) 05:33:48 435.225
ITAMSAT 1 29 Jun 05:29:19 05:34:04 36° 291° (WNW) 05:38:46 435.822/435.867
HORYU 2 29 Jun 05:45:56 05:49:17 20° 95° (E) 05:52:38 437.375
CUBESAT XI-V 29 Jun 05:49:44 05:54:09 41° 72° (ENE) 05:58:32 437.345
MOZHAYETS 4 29 Jun 05:59:22 06:02:32 18° 267° (W) 06:05:43
AO-85 29 Jun 05:59:57 06:02:01 13° 40° (NE) 06:04:03 145.980
KKS-1 29 Jun 06:06:45 06:08:34 12° 268° (W) 06:10:24 437.445
AO-7 29 Jun 06:32:35 06:40:34 51° 295° (WNW) 06:48:32 29.400- 29.500
PHONESAT 2.4 29 Jun 06:34:29 06:36:28 16° 148° (SSE) 06:38:28 2401.200-2431.200
STARS 29 Jun 06:38:05 06:39:16 11° 269° (W) 06:40:26 437.465
Cosmos 2499 29 Jun 06:49:07 06:57:47 59° 78° (ENE) 07:05:51 435.465 / 435.565
AIST 2 29 Jun 06:51:30 06:54:54 24° 310° (NW) 06:58:18 435.215
NOAA 15 29 Jun 07:00:33 07:04:52 26° 95° (E) 07:09:10 137.62
GONETS M04 29 Jun 07:16:07 07:24:45 69° 267° (W) 07:33:25
HORYU 2 29 Jun 07:21:50 07:25:54 34° 289° (WNW) 07:29:57 437.375
STRAND 1 29 Jun 07:23:58 07:28:23 30° 68° (ENE) 07:32:50 437.568
CUBESAT XI-V 29 Jun 07:28:25 07:31:39 18° 267° (W) 07:34:54 437.345
CUSAT 1 29 Jun 07:35:56 07:42:45 34° 91° (E) 07:48:42 437.405
NOAA 18 29 Jun 07:38:19 07:43:40 46° 100° (E) 07:48:58 137.9125
AO-85 29 Jun 07:38:43 07:43:12 81° 241° (WSW) 07:47:15 145.980
Cubesat XI-IV 29 Jun 07:39:13 07:44:22 44° 99° (E) 07:49:27 437.490
DOVE 4 29 Jun 07:46:54 07:49:20 14° 93° (E) 07:51:48 437.250
BRITE-PL 29 Jun 07:55:42 07:59:52 84° 284° (WNW) 08:04:05 437.365/2234.400
DANDE 29 Jun 08:03:32 08:10:33 31° 88° (E) 08:17:12 436.750
PHONESAT 2.4 29 Jun 08:09:42 08:12:45 75° 164° (SSE) 08:15:49 2401.200-2431.200
CUTE-I 29 Jun 08:13:13 08:18:38 88° 286° (WNW) 08:24:00 437.470
LilacSat-2 29 Jun 08:14:28 08:18:20 66° 284° (WNW) 08:22:10 437.200
GOMX 1 29 Jun 08:25:59 08:30:14 89° 260° (W) 08:34:39 467.674
AO-7 29 Jun 08:30:14 08:31:21 10° 316° (NW) 08:32:29 29.400- 29.500
PRISM 29 Jun 08:37:10 08:40:20 21° 68° (ENE) 08:43:29 437.425
CINEMA 3 29 Jun 08:37:46 08:40:36 16° 93° (E) 08:43:29 145.822/145.860
NOAA 15 29 Jun 08:39:55 08:44:40 36° 291° (WNW) 08:49:25 137.62
Cosmos 2499 29 Jun 08:43:14 08:50:13 28° 278° (W) 08:56:53 435.465 / 435.565
STRAND 1 29 Jun 09:02:59 09:07:28 30° 264° (W) 09:12:00 437.568
HO-68 29 Jun 09:10:25 09:17:02 38° 98° (E) 09:23:36 435.675
ISS 29 Jun 09:16:13 09:19:27 67° 139° (SE) 09:22:42 145.825
CUSAT 1 29 Jun 09:17:19 09:24:41 45° 283° (WNW) 09:31:00 437.405
GONETS M04 29 Jun 09:18:13 09:19:50 11° 286° (WNW) 09:21:27
NOAA 18 29 Jun 09:19:42 09:23:59 23° 296° (WNW) 09:28:15 137.9125
CANX-2 29 Jun 09:19:50 09:23:55 42° 98° (E) 09:27:58 2200.000
COMPASS 1 29 Jun 09:19:55 09:22:46 18° 93° (E) 09:25:36 437.405
Cubesat XI-IV 29 Jun 09:19:58 09:24:06 23° 295° (WNW) 09:28:15 437.490
DOVE 4 29 Jun 09:23:02 09:27:12 47° 286° (WNW) 09:31:36 437.250
CUTE 1.7 + AOD 2 29 Jun 09:39:34 09:43:51 64° 101° (ESE) 09:48:03 437.475
SEEDS 29 Jun 09:42:23 09:46:30 47° 99° (E) 09:50:33 437.485
DANDE 29 Jun 09:44:45 09:53:01 59° 282° (WNW) 10:00:43 436.750
PHONESAT 2.4 29 Jun 09:46:26 09:49:27 54° 359° (N) 09:52:29 2401.200-2431.200
CUTE-I 29 Jun 09:56:13 09:57:50 11° 301° (WNW) 09:59:28 437.470
AUBIESAT-1 29 Jun 09:58:52 10:01:03 14° 99° (E) 10:03:18 437.475
CUBEBUG 2 29 Jun 10:05:53 10:10:19 43° 99° (E) 10:14:48 437.445
PRISM 29 Jun 10:11:52 10:15:27 28° 263° (W) 10:19:04 437.425
CINEMA 3 29 Jun 10:13:31 10:17:54 47° 286° (WNW) 10:22:28 145.822/145.860
ANTELSAT 29 Jun 10:18:13 10:21:10 18° 66° (ENE) 10:24:11 437.575/2403.000
AAUSAT CUBESAT 2 29 Jun 10:19:26 10:23:37 72° 102° (ESE) 10:27:44 437.432
DELFI C3 29 Jun 10:26:56 10:28:46 13° 92° (E) 10:30:36 145.870
ZACube-1 29 Jun 10:29:16 10:33:26 34° 97° (E) 10:37:37 437.345
M-CUBED/EXP-1 PRIME 29 Jun 10:37:19 10:41:11 48° 105° (ESE) 10:45:19 437.505
Oscar 11 29 Jun 10:37:46 10:41:57 43° 99° (E) 10:46:04 145.826/435.025
FUNcube-1 29 Jun 10:46:14 10:50:40 49° 99° (E) 10:55:06 145.935
Cosmos 2491 29 Jun 10:46:32 10:47:44 10° 58° (ENE) 10:48:57 435.465 / 435.565
UWE-3 29 Jun 10:51:38 10:56:16 87° 287° (WNW) 11:00:56 435.000/436.395/437.385
ISS 29 Jun 10:53:51 10:56:11 18° 336° (NNW) 10:58:31 145.825
COMPASS 1 29 Jun 10:54:37 10:58:25 33° 288° (WNW) 11:02:09 437.405
CANX-2 29 Jun 10:56:50 10:59:23 16° 294° (WNW) 11:01:57 2200.000
HO-68 29 Jun 10:58:07 11:04:41 40° 295° (WNW) 11:11:14 435.675
TIGRISAT 29 Jun 11:08:05 11:12:18 62° 75° (ENE) 11:16:38 435.000
RS-15 29 Jun 11:08:51 11:17:24 26° 101° (E) 11:26:13 29.354- 29.394
UNISAT 6 29 Jun 11:13:25 11:17:41 77° 77° (ENE) 11:22:06 437.425
CUTE 1.7 + AOD 2 29 Jun 11:17:58 11:19:06 11° 296° (WNW) 11:20:13 437.475
NANOSAT C BR1 29 Jun 11:18:47 11:20:37 13° 65° (ENE) 11:22:27 145.865
SEEDS 29 Jun 11:19:35 11:21:46 14° 294° (WNW) 11:23:56 437.485
QB50P1 29 Jun 11:21:43 11:24:01 15° 65° (ENE) 11:26:19 145.935-145.965
PHONESAT 2.4 29 Jun 11:23:07 11:26:12 89° 175° (S) 11:29:17 2401.200-2431.200
POPSAT HIP 1 29 Jun 11:24:48 11:27:18 16° 66° (ENE) 11:29:47 437.405
AUBIESAT-1 29 Jun 11:31:49 11:35:37 45° 291° (WNW) 11:39:41 437.475
DANDE 29 Jun 11:35:02 11:37:10 11° 299° (WNW) 11:39:16 436.750
HUMSAT D 29 Jun 11:35:44 11:39:50 41° 98° (E) 11:43:53 437.325/437.525
QB50P2 29 Jun 11:36:25 11:39:42 22° 68° (ENE) 11:42:59 145.880/145.840
DUCHIFAT 1 29 Jun 11:37:39 11:40:39 19° 68° (ENE) 11:43:39 145.980
POLYITAN 1 29 Jun 11:39:01 11:42:19 23° 69° (ENE) 11:45:38 437.675
CUBEBUG 2 29 Jun 11:43:26 11:46:36 18° 293° (WNW) 11:49:48 437.445
ANTELSAT 29 Jun 11:53:37 11:57:35 36° 262° (W) 12:01:40 437.575/2403.000
PCSat 29 Jun 11:59:25 12:04:42 50° 58° (ENE) 12:09:57 145.827
DELFI C3 29 Jun 12:00:03 12:03:50 41° 287° (WNW) 12:07:33 145.870
ZACube-1 29 Jun 12:06:01 12:09:29 22° 292° (WNW) 12:12:58 437.345
BEESAT 3 29 Jun 12:06:22 12:10:13 47° 56° (NE) 12:14:01 437.485
JAS-2 29 Jun 12:09:57 12:15:25 23° 63° (ENE) 12:20:33 435.910
M-CUBED/EXP-1 PRIME 29 Jun 12:13:23 12:15:25 14° 298° (WNW) 12:17:31 437.505
Oscar 11 29 Jun 12:15:03 12:17:41 16° 294° (WNW) 12:20:18 145.826/435.025
YUBILEINY 29 Jun 12:23:41 12:29:42 21° 80° (E) 12:35:44 435.215
FUNcube-1 29 Jun 12:23:47 12:26:29 16° 294° (WNW) 12:29:11 145.935
CUBEBUG 1 29 Jun 12:26:07 12:28:47 16° 93° (E) 12:31:26 437.445
50 SAT 29 Jun 12:28:15 12:30:20 14° 93° (E) 12:32:24 437.505
BUGSAT 1 29 Jun 12:29:29 12:33:04 32° 71° (ENE) 12:36:39 437.445
VELOX 1 29 Jun 12:36:02 12:39:10 19° 94° (E) 12:42:16 145.980
O/OREOS (USA 219) 29 Jun 12:37:17 12:40:36 20° 59° (ENE) 12:43:56 437.305
Cosmos 2491 29 Jun 12:37:56 12:46:34 62° 80° (E) 12:55:10 435.465 / 435.565
BEESAT 2 29 Jun 12:45:47 12:49:47 71° 58° (ENE) 12:53:45 435.950
TIGRISAT 29 Jun 12:49:04 12:49:25 10° 270° (W) 12:49:46 435.000
NANOSAT C BR1 29 Jun 12:51:49 12:55:52 51° 260° (W) 12:59:59 145.865
QB50P1 29 Jun 12:55:24 12:59:24 44° 261° (W) 13:03:26 145.935-145.965
POPSAT HIP 1 29 Jun 12:58:46 13:02:43 41° 261° (W) 13:06:42 437.405
PHONESAT 2.4 29 Jun 13:00:10 13:02:33 21° 210° (SSW) 13:04:57 2401.200-2431.200
Oscar 19 29 Jun 13:04:54 13:07:55 16° 63° (ENE) 13:10:55 437.125/150
QB50P2 29 Jun 13:11:46 13:15:21 27° 264° (W) 13:18:57 145.880/145.840
UKube-1 29 Jun 13:11:52 13:15:37 28° 97° (E) 13:19:20 .
SPROUT 29 Jun 13:12:06 13:15:20 20° 95° (E) 13:18:32 437.525
HUMSAT D 29 Jun 13:12:21 13:15:06 17° 294° (WNW) 13:17:50 437.325/437.525
DUCHIFAT 1 29 Jun 13:12:24 13:16:07 31° 263° (W) 13:19:51 145.980
POLYITAN 1 29 Jun 13:14:27 13:17:59 26° 264° (W) 13:21:33 437.675
ESTCUBE 1 29 Jun 13:15:23 13:19:54 90° 103° (ESE) 13:24:23 437.505/2401.250
AISAT 29 Jun 13:16:02 13:20:22 57° 101° (E) 13:24:41 437.250
RS-15 29 Jun 13:16:57 13:28:21 81° 302° (WNW) 13:40:28 29.354- 29.394
Gurwin Techsat 1B 29 Jun 13:30:05 13:32:00 12° 60° (ENE) 13:33:57 435.225
DX 1 29 Jun 13:33:00 13:37:19 65° 102° (ESE) 13:41:36 434.975-435.025
AIST 2 29 Jun 13:36:02 13:38:32 15° 46° (NE) 13:41:00 435.215
PCSat 29 Jun 13:43:45 13:47:41 21° 254° (WSW) 13:51:36 145.827
BEESAT 3 29 Jun 13:45:36 13:47:28 13° 251° (WSW) 13:49:19 437.485
JAS-2 29 Jun 13:52:11 13:59:53 72° 258° (WSW) 14:06:55 435.910
50 SAT 29 Jun 14:00:48 14:04:05 31° 288° (WNW) 14:07:20 437.505
CUBEBUG 1 29 Jun 14:01:11 14:05:14 40° 288° (WNW) 14:09:16 437.445
BUGSAT 1 29 Jun 14:05:52 14:08:31 17° 266° (W) 14:11:10 437.445
ISS 29 Jun 14:10:05 14:11:24 12° 17° (NNE) 14:12:44 145.825
VELOX 1 29 Jun 14:11:43 14:15:43 35° 289° (WNW) 14:19:41 145.980
O/OREOS (USA 219) 29 Jun 14:15:59 14:20:07 36° 255° (WSW) 14:24:14 437.305
YUBILEINY 29 Jun 14:16:48 14:25:29 74° 279° (W) 14:34:17 435.215
TISAT 1 29 Jun 14:28:32 14:32:26 36° 98° (E) 14:36:20 437.305
Cosmos 2491 29 Jun 14:35:56 14:42:41 26° 278° (W) 14:49:27 435.465 / 435.565
Oscar 19 29 Jun 14:41:36 14:46:42 62° 259° (WSW) 14:51:48 437.125/150
SPROUT 29 Jun 14:47:31 14:51:17 31° 289° (WNW) 14:55:03 437.525
UKube-1 29 Jun 14:48:07 14:51:30 23° 292° (WNW) 14:54:52 .
Cosmos 2504 29 Jun 14:49:40 14:57:34 61° 91° (E) 15:06:02 435.465 / 435.565
AISAT 29 Jun 14:54:24 14:56:20 13° 296° (WNW) 14:58:16 437.250
Gurwin Techsat 1B 29 Jun 15:05:51 15:11:11 86° 256° (WSW) 15:16:32 435.225
ITAMSAT 1 29 Jun 15:06:36 15:11:17 35° 69° (ENE) 15:15:58 435.822/435.867
DX 1 29 Jun 15:11:39 15:12:56 11° 297° (WNW) 15:14:12 434.975-435.025
AIST 2 29 Jun 15:13:16 15:17:21 56° 242° (WSW) 15:21:24 435.215
SWISSCUBE 29 Jun 15:22:09 15:26:19 29° 96° (E) 15:30:27 437.505
RS-15 29 Jun 15:33:26 15:43:03 28° 329° (NNW) 15:53:04 29.354- 29.394
AO-7 29 Jun 15:37:28 15:45:07 43° 62° (ENE) 15:52:49 29.400- 29.500
JAS-2 29 Jun 15:43:45 15:45:39 11° 272° (W) 15:47:31 435.910
ISS 29 Jun 15:45:19 15:48:29 47° 35° (NE) 15:51:39 145.825
BEESAT 29 Jun 15:46:59 15:51:37 47° 100° (E) 15:56:12 436.000
ITUPSAT 1 29 Jun 15:48:40 15:53:20 48° 100° (E) 15:57:57 437.325
TISAT 1 29 Jun 16:05:00 16:07:47 18° 293° (WNW) 16:10:36 437.305
SO-50 29 Jun 16:19:30 16:24:16 55° 117° (ESE) 16:29:03 436.795
YUBILEINY 29 Jun 16:20:02 16:23:56 13° 300° (WNW) 16:27:52 435.215
MOZHAYETS 4 29 Jun 16:20:13 16:21:06 10° 90° (E) 16:21:58
KKS-1 29 Jun 16:22:01 16:23:31 11° 91° (E) 16:25:02 437.445
HORYU 2 29 Jun 16:43:13 16:45:59 17° 65° (ENE) 16:48:46 437.375
JUGNU 29 Jun 16:43:32 16:45:33 12° 175° (S) 16:47:34 437.505
Cosmos 2504 29 Jun 16:44:46 16:51:30 28° 291° (WNW) 16:58:38 435.465 / 435.565
ITAMSAT 1 29 Jun 16:46:23 16:50:45 27° 264° (W) 16:55:08 435.822/435.867
STARS 29 Jun 16:51:11 16:52:52 12° 92° (E) 16:54:32 437.465
SWISSCUBE 29 Jun 16:59:57 17:04:00 27° 292° (WNW) 17:08:01 437.505
ISS 29 Jun 17:22:35 17:24:39 16° 230° (SW) 17:26:43 145.825
BEESAT 29 Jun 17:25:51 17:29:00 18° 295° (WNW) 17:32:08 436.000
ITUPSAT 1 29 Jun 17:27:38 17:30:45 17° 296° (WNW) 17:33:52 437.325
AO-7 29 Jun 17:30:03 17:37:48 42° 260° (W) 17:45:38 29.400- 29.500
AIST 1 29 Jun 17:48:31 17:52:45 56° 94° (E) 17:56:58
CUBESAT XI-V 29 Jun 17:50:14 17:51:31 11° 90° (E) 17:52:48 437.345
RS-15 29 Jun 17:53:49 18:01:35 18° 5° (N) 18:09:26 29.354- 29.394
MOZHAYETS 4 29 Jun 17:54:04 17:58:42 68° 285° (WNW) 18:03:16
KKS-1 29 Jun 17:56:03 18:00:26 59° 286° (WNW) 18:04:48 437.445
CUTE-I 29 Jun 17:56:12 17:59:25 16° 62° (ENE) 18:02:39 437.470
SO-50 29 Jun 18:01:28 18:05:05 20° 314° (NW) 18:08:43 436.795
HORYU 2 29 Jun 18:17:57 18:22:10 43° 261° (W) 18:26:25 437.375
NOAA 15 29 Jun 18:18:58 18:23:45 36° 69° (ENE) 18:28:33 137.62
GONETS M04 29 Jun 18:20:16 18:27:18 29° 83° (E) 18:34:19
STARS 29 Jun 18:25:13 18:29:32 56° 286° (WNW) 18:33:51 437.465
JUGNU 29 Jun 18:31:46 18:33:40 11° 186° (S) 18:35:34 437.505
DOVE 4 29 Jun 18:52:32 18:54:07 12° 65° (ENE) 18:55:42 437.250
LilacSat-2 29 Jun 18:54:49 18:58:25 45° 74° (ENE) 19:02:04 437.200
Cubesat XI-IV 29 Jun 18:59:37 19:04:53 62° 73° (ENE) 19:10:11 437.490
NOAA 18 29 Jun 19:03:07 19:08:34 76° 74° (ENE) 19:14:04 137.9125
BRITE-PL 29 Jun 19:04:22 19:09:28 87° 258° (WSW) 19:14:11 437.365/2234.400
Cosmos 2499 29 Jun 19:22:40 19:30:31 49° 88° (E) 19:38:50 435.465 / 435.565
CUBESAT XI-V 29 Jun 19:24:44 19:29:19 64° 285° (WNW) 19:33:51 437.345
AIST 1 29 Jun 19:29:25 19:30:42 11° 290° (WNW) 19:31:59
GOMX 1 29 Jun 19:32:31 19:37:10 82° 76° (ENE) 19:41:32 467.674
CUTE-I 29 Jun 19:33:36 19:38:54 64° 259° (WSW) 19:44:14 437.470
HO-68 29 Jun 19:38:24 19:43:58 25° 60° (ENE) 19:49:32 435.675
STRAND 1 29 Jun 19:38:33 19:39:35 11° 89° (E) 19:40:37 437.568
CINEMA 3 29 Jun 19:40:25 19:41:17 11° 64° (ENE) 19:42:11 145.822/145.860
SRMSAT 29 Jun 19:48:13 19:50:28 12° 180° (S) 19:52:44 437.500
CUSAT 1 29 Jun 19:56:11 19:59:27 41° 266° (W) 20:02:07 437.405
NOAA 15 29 Jun 19:59:11 20:03:34 26° 264° (W) 20:07:56 137.62
RS-15 29 Jun 20:08:24 20:19:26 36° 39° (NE) 20:30:24 29.354- 29.394
COMPASS 1 29 Jun 20:11:13 20:12:14 11° 64° (ENE) 20:13:15 437.405
CANX-2 29 Jun 20:11:20 20:14:52 26° 70° (ENE) 20:18:25 2200.000
GONETS M04 29 Jun 20:15:01 20:23:31 57° 282° (WNW) 20:32:04
DOVE 4 29 Jun 20:27:09 20:31:24 54° 260° (W) 20:35:31 437.250
DANDE 29 Jun 20:29:29 20:34:06 61° 265° (W) 20:37:32 436.750
CUTE 1.7 + AOD 2 29 Jun 20:30:38 20:34:33 36° 72° (ENE) 20:38:31 437.475
LilacSat-2 29 Jun 20:32:06 20:32:58 11° 269° (W) 20:33:51 437.200
SEEDS 29 Jun 20:32:46 20:36:21 27° 70° (ENE) 20:39:58 437.485
Cubesat XI-IV 29 Jun 20:42:20 20:45:21 15° 269° (W) 20:48:23 437.490
AUBIESAT-1 29 Jun 20:45:47 20:46:22 10° 60° (ENE) 20:46:58 437.475
NOAA 18 29 Jun 20:47:31 20:49:46 12° 270° (W) 20:52:01 137.9125
CUBEBUG 2 29 Jun 21:03:05 21:06:37 27° 70° (ENE) 21:10:14 437.445
AAUSAT CUBESAT 2 29 Jun 21:08:01 21:11:54 38° 72° (ENE) 21:15:47 437.432
CINEMA 3 29 Jun 21:13:49 21:17:54 59° 259° (W) 21:22:01 145.822/145.860
STRAND 1 29 Jun 21:14:09 21:19:20 80° 283° (WNW) 21:24:27 437.568
Cosmos 2499 29 Jun 21:16:23 21:23:49 35° 288° (WNW) 21:31:42 435.465 / 435.565
M-CUBED/EXP-1 PRIME 29 Jun 21:23:29 21:26:34 41° 69° (ENE) 21:29:41 437.505
HO-68 29 Jun 21:24:04 21:31:07 62° 257° (WSW) 21:38:14 435.675
ZACube-1 29 Jun 21:24:17 21:27:28 21° 68° (ENE) 21:30:44 437.345
Oscar 11 29 Jun 21:31:10 21:34:52 28° 70° (ENE) 21:38:35 145.826/435.025
FUNcube-1 29 Jun 21:40:34 21:44:14 30° 70° (ENE) 21:48:00 145.935
COMPASS 1 29 Jun 21:43:04 21:47:14 63° 259° (W) 21:51:26 437.405
CANX-2 29 Jun 21:47:06 21:50:38 25° 265° (W) 21:54:11 2200.000
UWE-3 29 Jun 21:47:07 21:51:13 60° 75° (ENE) 21:55:27 435.000/436.395/437.385
AO-85 29 Jun 21:50:03 21:55:19 52° 116° (ESE) 22:00:28 145.980
PRISM 29 Jun 21:54:21 21:58:12 39° 99° (E) 22:02:01 437.425
CUTE 1.7 + AOD 2 29 Jun 22:07:39 22:10:31 17° 267° (W) 22:13:22 437.475
SEEDS 29 Jun 22:08:38 22:12:00 23° 265° (W) 22:15:24 437.485
AUBIESAT-1 29 Jun 22:17:25 22:20:31 38° 256° (WSW) 22:23:39 437.475
RS-15 29 Jun 22:20:54 22:33:15 79° 243° (WSW) 22:45:25 29.354- 29.394
HUMSAT D 29 Jun 22:25:55 22:29:15 23° 69° (ENE) 22:32:37 437.325/437.525
CUBEBUG 2 29 Jun 22:40:00 22:43:14 22° 266° (W) 22:46:32 437.445
DELFI C3 29 Jun 22:43:47 22:47:48 86° 72° (ENE) 22:51:52 145.870
AAUSAT CUBESAT 2 29 Jun 22:44:54 22:47:30 16° 267° (W) 22:50:07 437.432
ZACube-1 29 Jun 22:59:55 23:03:34 29° 264° (W) 23:07:20 437.345
TIGRISAT 29 Jun 23:02:06 23:04:54 16° 92° (E) 23:07:43 435.000
